| time (UTC) | temp C | wind direction | speed KPH | gust KPH | rain 1hr cm | rain 24hr cm | rain mn cm | humidity % | barometer mb |
| 20260505180026 | 12 | 193 | 4.8 | 9.7 | 0.00 | 0.20 | 0.20 | 72 | 1011.0 |
| 20260505175026 | 13 | 232 | 6.4 | 16.1 | 0.00 | 0.20 | 0.20 | 71 | 1011.0 |
| 20260505174027 | 13 | 215 | 6.4 | 16.1 | 0.00 | 0.20 | 0.20 | 71 | 1011.2 |
| 20260505173025 | 12 | 282 | 11.3 | 17.7 | 0.00 | 0.20 | 0.20 | 71 | 1011.2 |
| 20260505172026 | 12 | 280 | 16.1 | 25.7 | 0.00 | 0.20 | 0.20 | 71 | 1011.0 |
| 20260505171025 | 12 | 280 | 12.9 | 24.1 | 0.00 | 0.20 | 0.20 | 72 | 1011.2 |
| 20260505170027 | 12 | 285 | 3.2 | 12.9 | 0.00 | 0.20 | 0.20 | 76 | 1011.3 |
| 20260505165026 | 13 | 232 | 1.6 | 4.8 | 0.00 | 0.20 | 0.20 | 75 | 1011.2 |
| 20260505164024 | 13 | 245 | 1.6 | 4.8 | 0.00 | 0.20 | 0.20 | 75 | 1011.3 |
| 20260505163022 | 13 | 245 | 1.6 | 6.4 | 0.00 | 0.20 | 0.20 | 75 | 1011.3 |
| 20260505162022 | 13 | 230 | 1.6 | 4.8 | 0.00 | 0.20 | 0.20 | 76 | 1011.3 |
| 20260505161023 | 12 | 207 | 1.6 | 4.8 | 0.00 | 0.20 | 0.20 | 78 | 1011.0 |
| 20260505153019 | 12 | 228 | 8.0 | 17.7 | 0.00 | 0.20 | 0.20 | 78 | 1010.9 |
| 20260505152020 | 12 | 269 | 14.5 | 25.7 | 0.00 | 0.20 | 0.20 | 77 | 1011.0 |
| 20260505125020 | 12 | 251 | 8.0 | 20.9 | 0.00 | 0.43 | 0.20 | 79 | 1011.3 |
| 20260505123014 | 12 | 291 | 8.0 | 14.5 | 0.00 | 0.43 | 0.20 | 79 | 1011.2 |
| 20260505122015 | 12 | 291 | 8.0 | 14.5 | 0.00 | 0.43 | 0.20 | 79 | 1011.0 |
| 20260505121013 | 12 | 288 | 9.7 | 14.5 | 0.00 | 0.43 | 0.20 | 78 | 1011.2 |
| 20260505120015 | 12 | 285 | 11.3 | 14.5 | 0.00 | 0.43 | 0.20 | 78 | 1011.0 |
| 20260505115014 | 13 | 272 | 8.0 | 14.5 | 0.00 | 0.43 | 0.20 | 78 | 1011.0 |
| 20260505114014 | 13 | 254 | 4.8 | 11.3 | 0.00 | 0.43 | 0.20 | 78 | 1011.0 |
| 20260505113014 | 12 | 248 | 6.4 | 14.5 | 0.00 | 0.43 | 0.20 | 79 | 1011.2 |
| 20260505112014 | 12 | 273 | 6.4 | 11.3 | 0.00 | 0.43 | 0.20 | 79 | 1011.2 |
| 20260505111028 | 12 | 275 | 6.4 | 11.3 | 0.00 | 0.43 | 0.20 | 80 | 1011.2 |
| 20260505101011 | 11 | 261 | 4.8 | 9.7 | 0.03 | 0.43 | 0.20 | 82 | 1011.2 |
| 20260505100011 | 11 | 258 | 4.8 | 9.7 | 0.03 | 0.43 | 0.20 | 82 | 1011.2 |
| 20260505095012 | 11 | 277 | 3.2 | 4.8 | 0.03 | 0.43 | 0.20 | 81 | 1011.0 |
| 20260505094009 | 11 | 313 | 4.8 | 8.0 | 0.03 | 0.43 | 0.20 | 82 | 1011.3 |
| 20260505093007 | 11 | 318 | 4.8 | 8.0 | 0.03 | 0.43 | 0.20 | 82 | 1011.2 |
| 20260505092007 | 11 | 304 | 4.8 | 8.0 | 0.00 | 0.43 | 0.18 | 82 | 1011.0 |
| 20260505090005 | 11 | 297 | 4.8 | 8.0 | 0.00 | 0.43 | 0.18 | 82 | 1011.2 |
| 20260505085004 | 11 | 18 | 3.2 | 6.4 | 0.00 | 0.43 | 0.18 | 82 | 1011.3 |
| 20260505084004 | 11 | 14 | 1.6 | 6.4 | 0.00 | 0.43 | 0.18 | 82 | 1011.0 |
| 20260505083006 | 11 | 13 | 0.0 | 0.0 | 0.00 | 0.43 | 0.18 | 83 | 1010.7 |
| 20260505082004 | 11 | 153 | 0.0 | 0.0 | 0.00 | 0.43 | 0.18 | 84 | 1010.9 |
| 20260505080958 | 10 | 155 | 0.0 | 0.0 | 0.00 | 0.43 | 0.18 | 84 | 1010.9 |
| 20260505075957 | 10 | 211 | 0.0 | 0.0 | 0.00 | 0.43 | 0.18 | 84 | 1011.2 |
| 20260505074956 | 10 | 211 | 0.0 | 0.0 | 0.00 | 0.43 | 0.18 | 85 | 1011.2 |
| 20260505073956 | 10 | 211 | 0.0 | 0.0 | 0.00 | 0.43 | 0.18 | 85 | 1011.4 |
| 20260505072958 | -17 | 211 | 0.0 | 0.0 | 0.00 | 0.43 | 0.18 | 1011.5 | |
| 20260505071909 | -17 | 0.0 | 0.0 | 0.05 | 0.43 | 0.18 | 1011.6 | ||
| 20260505070910 | -17 | 0.0 | 0.0 | 0.05 | 0.43 | 0.18 | 1011.8 | ||
| 20260505065818 | -17 | 0.0 | 0.0 | 0.05 | 0.43 | 0.18 | 1011.9 | ||
| 20260505064809 | 9 | 211 | 0.0 | 0.0 | 0.08 | 0.43 | 0.18 | 85 | 1012.0 |
| 20260505063803 | 9 | 211 | 0.0 | 0.0 | 0.10 | 0.43 | 0.18 | 85 | 1012.1 |
| 20260505062801 | 9 | 211 | 0.0 | 0.0 | 0.13 | 0.43 | 0.18 | 85 | 1012.2 |
| 20260505061801 | -17 | 0.0 | 0.0 | 0.08 | 0.36 | 0.13 | 1012.3 | ||
| 20260505060718 | 9 | 211 | 0.0 | 0.0 | 0.10 | 0.36 | 0.13 | 85 | 1012.3 |
| 20260505055715 | 9 | 211 | 0.0 | 0.0 | 0.10 | 0.36 | 0.13 | 85 | 1012.5 |
| 20260505054705 | 9 | 211 | 0.0 | 0.0 | 0.08 | 0.33 | 0.10 | 85 | 1012.5 |
| 20260505052705 | 8 | 211 | 0.0 | 0.0 | 0.05 | 0.30 | 0.05 | 85 | 1012.4 |
| 20260505051707 | 8 | 268 | 0.0 | 0.0 | 0.03 | 0.28 | 0.05 | 85 | 1012.3 |
| 20260505050706 | 8 | 237 | 0.0 | 0.0 | 0.00 | 0.25 | 0.03 | 85 | 1012.4 |
| 20260505041703 | 8 | 155 | 0.0 | 1.6 | 0.00 | 0.25 | 0.03 | 85 | 1012.4 |
| 20260505035703 | 8 | 233 | 0.0 | 0.0 | 0.03 | 0.25 | 0.03 | 85 | 1012.2 |
| 20260505034702 | 8 | 232 | 0.0 | 1.6 | 0.03 | 0.25 | 0.03 | 85 | 1012.3 |
| 20260505033657 | 8 | 218 | 0.0 | 4.8 | 0.03 | 0.25 | 0.03 | 85 | 1012.5 |
| 20260505032657 | 8 | 218 | 0.0 | 4.8 | 0.03 | 0.25 | 0.03 | 85 | 1012.5 |
| 20260505031657 | 8 | 183 | 0.0 | 1.6 | 0.03 | 0.25 | 0.03 | 85 | 1012.6 |
| 20260505025656 | 8 | 232 | 0.0 | 3.2 | 0.00 | 0.23 | 0.00 | 85 | 1012.6 |
| 20260505024657 | 8 | 232 | 1.6 | 6.4 | 0.00 | 0.23 | 0.00 | 85 | 1012.6 |
| 20260505023657 | 8 | 239 | 0.0 | 3.2 | 0.00 | 0.23 | 0.00 | 85 | 1012.9 |
| 20260505022656 | 8 | 239 | 1.6 | 4.8 | 0.00 | 0.23 | 0.00 | 85 | 1012.9 |
| 20260505021659 | 8 | 253 | 1.6 | 4.8 | 0.00 | 0.23 | 0.00 | 85 | 1012.9 |
| 20260505020651 | 8 | 54 | 0.0 | 3.2 | 0.00 | 0.23 | 0.00 | 85 | 1012.9 |
| 20260505015651 | 8 | 54 | 0.0 | 0.0 | 0.00 | 0.23 | 0.00 | 85 | 1012.9 |
| 20260505014650 | 8 | 54 | 0.0 | 0.0 | 0.00 | 0.23 | 0.00 | 85 | 1012.9 |
| 20260505013650 | 8 | 54 | 0.0 | 1.6 | 0.00 | 0.23 | 0.00 | 85 | 1012.9 |
| 20260505012650 | 8 | 53 | 0.0 | 0.0 | 0.00 | 0.23 | 0.00 | 85 | 1012.9 |
| 20260505010652 | 8 | 53 | 0.0 | 0.0 | 0.00 | 0.23 | 0.00 | 84 | 1013.0 |
| 20260505005652 | 8 | 53 | 0.0 | 0.0 | 0.00 | 0.23 | 0.00 | 84 | 1013.0 |
| 20260505004652 | 8 | 53 | 0.0 | 0.0 | 0.00 | 0.23 | 0.00 | 85 | 1013.2 |
| 20260505003645 | 8 | 53 | 0.0 | 0.0 | 0.00 | 0.23 | 0.00 | 84 | 1013.4 |
| 20260505002644 | 8 | 53 | 0.0 | 1.6 | 0.00 | 0.23 | 0.00 | 84 | 1013.6 |
| 20260505001645 | 8 | 53 | 1.6 | 3.2 | 0.00 | 0.23 | 0.00 | 84 | 1013.7 |
| 20260505000643 | 8 | 53 | 0.0 | 0.0 | 0.00 | 0.23 | 0.00 | 84 | 1013.8 |
| 20260504235644 | 8 | 53 | 0.0 | 0.0 | 0.00 | 0.23 | 0.00 | 84 | 1013.9 |
| 20260504233645 | 8 | 53 | 0.0 | 1.6 | 0.00 | 0.23 | 0.00 | 84 | 1014.1 |
| 20260504232644 | 8 | 53 | 0.0 | 0.0 | 0.00 | 0.23 | 0.00 | 84 | 1014.0 |
| 20260504230639 | 8 | 53 | 0.0 | 3.2 | 0.00 | 0.23 | 0.00 | 84 | 1014.4 |
| 20260504225638 | 8 | 53 | 0.0 | 3.2 | 0.00 | 0.23 | 0.00 | 84 | 1014.5 |
| 20260504222636 | 8 | 53 | 0.0 | 4.8 | 0.00 | 0.23 | 0.00 | 84 | 1014.7 |
| 20260504221636 | 8 | 53 | 0.0 | 0.0 | 0.00 | 0.23 | 0.00 | 84 | 1014.8 |
| 20260504220637 | 8 | 53 | 0.0 | 0.0 | 0.00 | 0.23 | 0.00 | 84 | 1014.7 |
| 20260504215634 | 8 | 53 | 0.0 | 0.0 | 0.00 | 0.23 | 0.23 | 83 | 1014.7 |
| 20260504214636 | 8 | 53 | 0.0 | 0.0 | 0.00 | 0.23 | 0.23 | 83 | 1014.8 |
| 20260504212632 | 8 | 53 | 0.0 | 0.0 | 0.00 | 0.23 | 0.23 | 83 | 1014.9 |
| 20260504211629 | 8 | 53 | 1.6 | 4.8 | 0.00 | 0.23 | 0.23 | 83 | 1015.0 |
| 20260504205627 | 9 | 53 | 0.0 | 0.0 | 0.00 | 0.23 | 0.23 | 83 | 1015.2 |
| 20260504204629 | 10 | 53 | 1.6 | 3.2 | 0.00 | 0.23 | 0.23 | 83 | 1015.1 |
| 20260504203622 | 10 | 53 | 1.6 | 4.8 | 0.00 | 0.23 | 0.23 | 82 | 1015.3 |
| 20260504202622 | 10 | 53 | 4.8 | 4.8 | 0.00 | 0.23 | 0.23 | 82 | 1015.3 |
| 20260504201622 | 10 | 46 | 3.2 | 4.8 | 0.00 | 0.23 | 0.23 | 81 | 1015.4 |
| 20260504200622 | 10 | 43 | 1.6 | 3.2 | 0.00 | 0.23 | 0.23 | 80 | 1015.6 |
| 20260504195623 | 10 | 43 | 1.6 | 4.8 | 0.00 | 0.23 | 0.23 | 80 | 1015.5 |
| 20260504194623 | 10 | 119 | 0.0 | 4.8 | 0.00 | 0.23 | 0.23 | 80 | 1015.4 |
| 20260504193621 | 10 | 121 | 3.2 | 6.4 | 0.00 | 0.23 | 0.23 | 80 | 1015.4 |
| 20260504192623 | 10 | 121 | 4.8 | 6.4 | 0.00 | 0.23 | 0.23 | 80 | 1015.3 |
| 20260504191622 | 10 | 185 | 3.2 | 4.8 | 0.00 | 0.23 | 0.23 | 80 | 1015.3 |
| 20260504190618 | 11 | 185 | 0.0 | 3.2 | 0.00 | 0.23 | 0.23 | 80 | 1015.4 |
| 20260504185618 | 11 | 185 | 0.0 | 1.6 | 0.00 | 0.23 | 0.23 | 80 | 1015.4 |
| 20260504184619 | 11 | 185 | 0.0 | 1.6 | 0.00 | 0.23 | 0.23 | 79 | 1015.4 |
| 20260504183615 | 11 | 185 | 1.6 | 3.2 | 0.00 | 0.23 | 0.23 | 79 | 1015.4 |
| 20260504182613 | 11 | 186 | 3.2 | 6.4 | 0.00 | 0.23 | 0.23 | 79 | 1015.4 |
| 20260504181613 | 11 | 248 | 1.6 | 4.8 | 0.00 | 0.23 | 0.23 | 80 | 1015.6 |
| 20260504180613 | 11 | 248 | 3.2 | 4.8 | 0.00 | 0.23 | 0.23 | 80 | 1015.5 |